Regional Weather Roundup
Issued by NWS

Home | Current Version | Previous Version | Graphics & Text | Print | Product List | Glossary On
Versions: 1 2 3 4 5 6 7 8 9 10 11 12 13 14 15 16 17 18 19 20 21 22 23 24 25 26 27 28 29 30 31 32 33 34 35 36 37 38 39 40 41 42 43 44 45 46 47 48 49
000
ASUS45 KCYS 290310
RWRWY

WYOMING REGIONAL WEATHER ROUNDUP
NATIONAL WEATHER SERVICE CHEYENNE WY
900 PM MDT SUN JUN 28 2015

NOTE:  "FAIR" INDICATES FEW OR NO CLOUDS BELOW 12,000 FEET
WITH NO SIGNIFICANT WEATHER AND/OR OBSTRUCTIONS TO VISIBILITY.

WYZ001-290400-
YELLOWSTONE NATIONAL PARK

CITY           SKY/WX    TMP DP  RH WIND       PRES   REMARKS
LK YELLOWSTONE   N/A     68  48  48 CALM      30.43R
W YELLOWSTONE  NOT AVBL

$$
WYZ002>013-054>058-071-098>099-290400-
NORTHERN WYOMING

CITY           SKY/WX    TMP DP  RH WIND       PRES   REMARKS
JACKSON        FAIR      73  46  38 NE6       30.25F
CODY           MOCLDY    81  48  32 W5        30.20R
GREYBULL       FAIR      90  42  18 CALM      30.06R
WORLAND        FAIR      78  53  41 S10       30.10R
SHERIDAN       FAIR      77  63  61 SE5       30.09R
BUFFALO        FAIR      74  59  59 SW6       30.17S
GILLETTE       FAIR      70  60  70 S9        30.10S
HULETT         FAIR      72  61  68 S6        30.11S
NEWCASTLE      FAIR      70  61  73 SE6       30.12R

$$
WYZ014>020-022>026-101>103-290400-
CENTRAL WYOMING

CITY           SKY/WX    TMP DP  RH WIND       PRES   REMARKS
BIG PINEY      FAIR      76  41  28 E8        30.30R
PINEDALE       FAIR      70  46  43 CALM      30.31F
DUBOIS         FAIR      68  43  40 SE9       30.39S
LANDER         FAIR      75  49  39 N7        30.26R
RIVERTON       LGT RAIN  74  51  44 N3        30.25R
CASPER         FAIR      70  51  51 W10       30.22F
DOUGLAS        FAIR      75  52  44 E6        30.16R

$$
WYZ021-027>030-104>119-290400-
SOUTHERN WYOMING

CITY           SKY/WX    TMP DP  RH WIND       PRES   REMARKS
EVANSTON       FAIR      79  39  23 N8        30.28R
KEMMERER       FAIR     N/A N/A N/A NE7       30.31R
FORT BRIDGER   CLEAR     81  37  21 N6        30.30R
ROCK SPRINGS   MOCLDY    78  38  23 NE16G28   30.26R
DIXON          FAIR      78  44  29 E10       30.26R
RAWLINS        FAIR      74  42  31 N24G35    30.34R
SARATOGA       MOCLDY    72  46  40 N7        30.33R
LARAMIE        FAIR      70  49  47 SE6       30.33R
CHEYENNE       FAIR      71  54  54 S3        30.25R
TORRINGTON     FAIR      78  52  40 E10       30.11R
PINE BLUFFS    FAIR      70  57  64 CALM      30.19R

$$


USA.gov is the U.S. government's official web portal to all federal, state and local government web resources and services.